sat.trackr.live / text

‹ back to catalog

STARLINK-5189

NORAD 54052 · 2022-136B

PAYLOAD ACTIVE UNKNOWN

§ Identity

Operator
Country
US
Launch date
2022-10-20
Launch site
AFETR
Launch vehicle
Mass (kg)
RCS (m²)

Purposes: comms

External: N2YO · Heavens-Above · Gunter

§ Orbital elements

Epoch: 2026-05-24T21:43:12.044928Z

Period
95.44 min
Inclination
53.2143°
Eccentricity
0.0000962
Mean motion
15.08834121 rev/d
Perigee alt
539.1 km
Apogee alt
540.4 km
Semi-major
6,917.9 km
B*
-3.8468e-6
RAAN
321.7887°
Arg perigee
72.5495°
Mean anomaly
287.5602°
Rev number
19,891

§ Raw data

STARLINK-51891 54052U 22136B   26144.90500052 -.00000349  00000+0 -38468-5 0  99992 54052  53.2143 321.7887 0000962  72.5495 287.5602 15.08834121198912

JSON: /api/v1/satellites/54052 · /tle

For live sub-satellite position, see the globe view (requires WebGL).

§ Visibility from observer

Set your observer location to see the next 7 days of passes ≥ 10°. The values pass through the URL so the page stays shareable.

No JS? Fill the form by hand. The geolocation button needs JavaScript.